Location: Dal�� Lhota
(48.7500°N, 14.0167°E)
Time: 22:38:49
(UTC+00:00)

Meteor 1-12 Rocket - Pass Details

Date: 24 September 2020
Orbit: 854 x 927 km, 81.2° (Epoch: 24 October)

Event Time Altitude Azimuth Distance (km) Brightness Sun altitude
Rises 18:06:31 0° 193° (SSW) 3,520 7.4 -12.2°
Reaches altitude 10° 18:08:59 10° 195° (SSW) 2,573 6.7 -12.6°
Maximum altitude 18:14:52 79° 282° (WNW) 910 4.5 -13.6°
Drops below altitude 10° 18:20:40 10° 10° (N) 2,541 6.8 -14.5°
Sets 18:23:06 0° 12° (NNE) 3,473 7.5 -14.9°
